星链-2142 (STARLINK-2142 )

导读 | 星芒AI

STARLINK-2142 是 SpaceX Starlink 项目中的一颗低轨通信卫星,属于第二代 Starlink 卫星(Gen2)系列。该卫星于2023年发射,旨在为全球用户提供高速、低延迟的互联网服务。相比第一代卫星,STARLINK-2142 搭载了更先进的激光通信系统和更高性能的星载处理器,提升了数据传输效率与网络稳定性。它运行在约550公里高的近地轨道,是SpaceX构建全球宽带网络的重要组成部分。

基本信息
目录编号:
47732
目录名称:
STARLINK-2142
国际标识:
2021-017L
轨道中心:
EARTH
卫星名称:
星链-2142
卫星全名:
星链-2142 (STARLINK-2142 )
卫星状态:
已陨落 最后检测时间 2025-09-07
发射日期:
2021-03-04 UTC
国别 :
美国 (US)
星等 :
--
轨道信息
数据来源 国际轨道数据
星历时间: 2025-09-07T09:52:22+0800
轨道信息已过期100天
半长轴: 6556.792km
偏心率: 0.0004428
轨道倾角: 53.024°
近地点辐角 245.352°
升交点赤经 183.329°
平近点角 114.706°
近地点: 175.753km
远地点: 181.561km
周期: 88.064分钟
每日圈数: 16.351804
详细信息
固有亮度:
5
最大亮度:
2.5
卫星平台:
Starlink V1.0
覆盖范围:
全球
运营商:
太空探索技术公司
运营商所在国:
美国
制造商(研发单位):
太空探索技术公司
制造商所在国:
美国
使用方式:
暂无
卫星简介
星链(Starlink)计划是由太空探索技术公司(SpaceX)提出的一个巨型低轨卫星互联网星座项目,计划在2019年至2024年间在太空搭建由约1.2万颗卫星组成的“星链”网络,其中1584颗将部署在地球上空550千米处的近地轨道,并从2020年开始工作。该卫星仍在工作。